Probability
6 26 52 65 68 77 68 77 84 81 74 77 77 84 81 71 74 74 71 68 65 61 71 65 58 58 55 58 55 52 48 48 58 55 52 48 52 48 58 55 48 35 58
13 29 61 68 71 71 71 77 77 77 77 71 74 71 74 71 71 68 68 74 74 68 74 77 61 55 58 61 68 61 61 58 55 52 45 45 48 55 52 52 39 35 48
26 26 52 71 68 77 74 74 74 77 74 81 77 74 71 74 74 71 71 74 58 68 61 74 68 65 61 52 61 55 58 55 58 48 48 23 26 45 48 42 39 42 45
19 29 32 58 71 74 77 68 68 71 77 81 81 74 71 68 65 68 71 68 61 65 61 68 68 61 61 61 55 61 65 58 52 26 19 23 23 32 52 48 35 42 35
23 19 32 65 74 68 68 65 65 68 71 68 65 65 68 68 61 61 68 71 68 55 55 55 58 61 65 68 68 61 48 48 45 19 10 10 26 39 42 45 39 26 39
23 23 26 52 74 74 68 68 61 61 65 65 68 65 58 55 55 48 65 65 65 55 58 55 58 58 68 65 61 65 45 52 26 10 13 6 6 39 39 35 26 32 29
16 10 23 58 77 74 74 65 65 65 65 61 58 61 58 55 52 52 52 55 52 48 48 52 55 68 65 68 65 55 45 35 23 19 10 6 3 26 26 26 32 32 32
10 10 13 39 55 65 65 68 61 61 55 52 52 52 58 58 55 55 52 42 39 45 45 55 65 65 61 58 55 52 39 39 26 13 13 6 16 35 29 32 32 26 29
6 10 13 23 35 45 65 58 65 61 52 55 52 45 48 52 48 52 48 42 42 52 48 52 55 58 61 61 52 52 45 39 19 13 6 6 16 29 35 29 26 29 39
0 3 6 13 16 19 23 45 48 39 39 48 42 42 52 52 52 55 45 45 39 45 45 42 48 55 55 48 42 39 39 32 16 10 6 10 23 29 32 42 42 32 32
3 0 3 6 6 6 16 19 19 29 39 42 29 45 42 23 13 32 39 45 35 35 35 45 42 48 42 29 39 39 29 19 16 10 10 13 23 29 45 55 52 42 45
3 3 6 6 6 6 13 16 16 16 16 16 16 13 13 13 13 16 29 42 42 42 45 42 42 35 29 23 19 29 16 13 16 16 10 23 29 29 42 52 52 42 39
0 3 6 6 3 6 6 6 10 6 10 10 13 13 13 10 13 13 10 10 13 13 10 16 13 13 10 13 10 10 10 6 13 13 13 26 35 32 39 45 42 39 39
0 3 6 6 6 6 6 6 6 6 6 6 10 10 10 6 10 3 3 3 3 3 3 6 6 6 6 6 10 13 13 10 10 13 16 29 42 48 48 45 42 45 39
3 3 3 10 10 6 6 10 10 6 6 6 6 13 6 6 6 6 6 6 3 3 3 6 6 6 3 10 13 13 10 6 6 6 13 29 35 48 45 45 42 42 42
3 3 3 3 3 6 6 3 3 0 3 0 3 3 3 0 0 3 3 6 6 3 3 6 3 3 3 3 6 10 13 6 10 10 10 19 29 39 45 48 42 42 42
0 3 10 13 16 6 0 3 0 3 0 6 6 3 3 3 3 3 3 3 10 6 6 3 3 0 3 6 6 6 6 6 10 13 10 13 23 32 35 42 42 45 45
6 6 10 26 13 13 0 3 0 0 0 0 3 3 3 3 3 6 6 6 6 6 3 3 3 0 0 3 3 3 3 3 10 13 13 6 10 16 26 32 39 42 48
3 3 10 10 10 6 3 6 3 3 6 0 0 6 6 6 6 6 6 6 6 6 6 3 3 0 0 3 3 0 0 3 3 10 13 6 6 10 16 26 29 39 48
3 6 10 6 10 10 3 6 6 3 6 3 0 3 6 6 6 10 6 13 13 10 6 6 6 0 0 3 3 3 3 6 6 13 13 13 3 3 3 10 23 23 26
10 6 10 10 10 6 6 3 10 6 3 3 3 10 10 10 10 10 10 10 6 10 10 10 10 6 3 6 3 6 6 6 6 6 10 10 3 3 3 3 6 10 10
13 10 6 10 6 6 3 6 6 6 6 10 10 13 13 13 10 10 3 3 3 3 6 13 10 6 6 10 6 6 6 6 3 3 6 3 3 6 6 6 3 3 3
10 6 10 6 3 3 3 6 13 13 13 13 10 10 6 10 6 3 3 3 6 3 6 10 3 10 13 10 6 6 6 6 6 3 0 3 3 3 3 6 6 3 3
6 6 6 3 3 6 10 16 16 16 13 10 6 10 6 10 3 6 6 6 3 10 10 10 13 10 13 16 6 6 6 6 6 6 6 3 3 3 3 3 10 10 10
10 6 3 3 3 6 13 13 19 16 16 13 13 10 10 10 10 10 6 6 6 10 6 6 10 6 10 13 6 6 6 6 6 6 6 3 3 3 3 3 3 6 10
10 10 6 3 3 10 13 13 16 16 16 13 10 13 10 10 6 3 6 10 13 13 6 10 6 6 10 6 3 3 13 16 6 6 3 3 3 3 3 3 3 6 6
Height
5876 5875 5874 5873 5872 5871 5871 5870 5870 5870 5869 5869 5869 5869 5868 5868 5867 5866 5866 5866 5867 5868 5870 5872 5873 5874 5875 5875 5876 5876 5877 5877 5878 5878 5879 5880 5880 5881 5882 5882 5883 5883 5884
5877 5875 5875 5874 5873 5872 5871 5871 5870 5870 5869 5869 5869 5869 5868 5867 5866 5866 5866 5866 5866 5868 5870 5872 5873 5874 5874 5875 5875 5876 5876 5877 5878 5878 5879 5879 5880 5880 5881 5882 5882 5883 5883
5877 5876 5875 5874 5873 5872 5872 5871 5871 5870 5870 5869 5869 5868 5868 5867 5866 5866 5866 5867 5867 5869 5871 5872 5873 5874 5874 5875 5875 5876 5876 5876 5877 5878 5878 5879 5879 5880 5881 5881 5882 5882 5883
5878 5877 5876 5875 5874 5873 5872 5872 5871 5871 5870 5870 5869 5869 5868 5867 5867 5867 5868 5868 5869 5871 5872 5873 5874 5874 5874 5875 5875 5875 5876 5876 5877 5877 5878 5878 5879 5880 5880 5881 5881 5881 5882
5879 5878 5877 5876 5874 5874 5873 5872 5872 5872 5871 5870 5870 5869 5869 5867 5868 5869 5869 5870 5871 5872 5873 5874 5874 5874 5875 5875 5875 5875 5875 5876 5876 5876 5877 5878 5878 5879 5879 5880 5880 5881 5881
5879 5878 5877 5876 5875 5874 5874 5873 5873 5872 5872 5871 5870 5870 5870 5870 5870 5871 5871 5872 5872 5873 5873 5874 5874 5874 5874 5874 5874 5875 5875 5875 5875 5875 5876 5876 5877 5878 5878 5879 5880 5880 5880
5880 5879 5878 5877 5876 5875 5874 5874 5873 5873 5873 5872 5872 5872 5872 5872 5872 5872 5872 5872 5873 5873 5874 5874 5874 5874 5874 5874 5874 5874 5874 5874 5874 5874 5874 5875 5875 5876 5877 5878 5879 5879 5880
5881 5880 5878 5877 5876 5876 5875 5874 5874 5874 5873 5873 5873 5873 5873 5873 5872 5872 5873 5873 5873 5874 5874 5874 5874 5873 5873 5873 5873 5873 5873 5872 5872 5873 5873 5873 5874 5875 5875 5876 5877 5878 5879
5882 5881 5879 5878 5877 5877 5876 5875 5874 5874 5874 5874 5874 5873 5873 5873 5873 5873 5873 5874 5874 5874 5873 5873 5873 5873 5873 5872 5872 5872 5872 5871 5871 5871 5871 5871 5872 5873 5874 5875 5876 5877 5878
5883 5882 5880 5879 5878 5877 5877 5876 5875 5875 5875 5875 5874 5874 5874 5874 5874 5874 5874 5874 5874 5874 5873 5873 5873 5873 5872 5871 5871 5871 5870 5870 5869 5868 5868 5869 5870 5871 5872 5873 5874 5876 5876
5884 5883 5882 5881 5879 5879 5878 5877 5876 5876 5876 5875 5875 5875 5875 5874 5874 5874 5874 5874 5874 5873 5873 5873 5872 5872 5871 5871 5870 5869 5869 5868 5866 5865 5865 5866 5868 5869 5870 5872 5873 5874 5875
5886 5884 5883 5882 5880 5879 5878 5878 5877 5877 5876 5876 5876 5876 5875 5875 5875 5875 5874 5874 5873 5873 5873 5872 5871 5871 5870 5870 5869 5868 5868 5866 5865 5863 5862 5864 5866 5868 5869 5871 5872 5873 5874
5887 5885 5884 5883 5881 5880 5879 5878 5878 5877 5877 5877 5876 5876 5876 5876 5875 5875 5874 5874 5873 5873 5872 5871 5871 5870 5870 5869 5868 5868 5867 5865 5865 5864 5863 5863 5865 5867 5868 5870 5871 5872 5873
5888 5887 5885 5884 5882 5881 5880 5880 5879 5878 5878 5877 5877 5877 5877 5876 5876 5876 5875 5874 5873 5872 5871 5871 5870 5870 5869 5869 5868 5867 5866 5865 5864 5864 5863 5864 5865 5866 5868 5869 5870 5871 5871
5890 5888 5887 5885 5883 5883 5882 5881 5880 5880 5879 5878 5878 5877 5877 5877 5876 5876 5875 5874 5873 5872 5871 5870 5869 5869 5868 5868 5867 5867 5866 5865 5864 5864 5864 5864 5865 5866 5867 5868 5868 5869 5869
5891 5890 5888 5886 5885 5884 5883 5882 5881 5881 5880 5879 5879 5878 5878 5877 5876 5875 5875 5874 5873 5872 5871 5870 5869 5868 5867 5867 5866 5866 5865 5865 5864 5864 5864 5864 5864 5865 5866 5867 5867 5867 5868
5893 5891 5889 5888 5886 5885 5884 5884 5883 5882 5881 5880 5879 5879 5878 5877 5876 5875 5875 5874 5873 5872 5870 5869 5868 5868 5867 5866 5865 5865 5865 5864 5864 5863 5863 5863 5863 5864 5865 5865 5866 5866 5866
5894 5893 5891 5889 5888 5886 5886 5885 5884 5883 5882 5881 5880 5879 5879 5878 5877 5876 5875 5873 5872 5871 5870 5869 5868 5867 5866 5865 5865 5864 5864 5863 5863 5862 5862 5862 5862 5862 5863 5863 5864 5864 5864
5896 5894 5892 5890 5889 5888 5887 5886 5885 5884 5883 5882 5881 5880 5879 5878 5877 5876 5875 5873 5872 5871 5869 5868 5867 5866 5865 5865 5864 5863 5863 5862 5861 5861 5861 5861 5861 5861 5861 5861 5862 5862 5862
5896 5895 5893 5892 5890 5889 5888 5887 5886 5884 5883 5882 5881 5880 5879 5878 5877 5876 5874 5873 5872 5870 5869 5868 5866 5865 5864 5863 5863 5862 5861 5861 5860 5860 5859 5859 5859 5859 5859 5859 5860 5860 5860
5897 5895 5894 5892 5891 5890 5888 5887 5886 5885 5884 5883 5882 5881 5879 5878 5877 5875 5874 5873 5871 5870 5869 5867 5866 5865 5864 5862 5862 5861 5860 5859 5859 5858 5858 5857 5857 5857 5857 5858 5858 5858 5858
5897 5895 5894 5892 5891 5890 5889 5888 5887 5885 5884 5883 5882 5880 5879 5877 5876 5875 5873 5872 5870 5869 5868 5866 5865 5864 5862 5861 5860 5859 5859 5858 5857 5856 5856 5855 5855 5855 5855 5855 5856 5856 5856
5897 5895 5894 5892 5891 5890 5889 5888 5886 5885 5884 5883 5881 5880 5878 5877 5875 5874 5872 5871 5870 5868 5866 5865 5864 5862 5861 5860 5858 5858 5857 5856 5855 5854 5853 5853 5853 5853 5853 5853 5853 5853 5853
5896 5895 5893 5892 5891 5889 5888 5887 5886 5884 5883 5882 5880 5879 5877 5875 5874 5872 5871 5869 5868 5866 5865 5863 5862 5861 5859 5858 5857 5856 5854 5853 5853 5852 5851 5850 5850 5850 5850 5850 5850 5850 5850
5896 5894 5893 5891 5890 5888 5887 5885 5884 5883 5882 5880 5879 5877 5875 5874 5872 5871 5869 5867 5866 5864 5863 5861 5860 5859 5857 5856 5854 5853 5852 5851 5850 5850 5849 5848 5847 5847 5846 5846 5846 5847 5847
5894 5893 5891 5890 5889 5887 5885 5884 5883 5881 5880 5878 5877 5875 5873 5871 5870 5868 5866 5865 5863 5862 5860 5859 5858 5856 5855 5853 5852 5851 5849 5848 5848 5847 5846 5845 5845 5844 5843 5843 5843 5843 5843
Wind_Speed
8 7 7 6 6 6 7 6 6 6 5 5 4 4 4 3 2 2 1 2 2 2 3 3 2 2 1 1 2 2 3 2 3 3 4 5 5 4 3 4 4 5 5
8 7 7 7 6 7 7 6 6 6 5 4 4 4 4 4 3 3 3 3 3 3 3 3 3 2 1 2 2 2 3 3 3 3 4 5 5 5 4 4 4 4 5
8 8 8 7 7 7 7 7 6 6 6 5 5 4 4 4 4 3 5 5 5 5 4 4 3 2 1 1 1 2 3 4 4 3 3 4 4 4 4 4 4 4 5
8 9 8 8 7 7 8 7 7 6 6 6 5 5 6 5 4 5 6 6 5 5 4 4 3 2 2 1 1 1 2 3 3 4 3 3 4 5 4 4 4 4 5
8 8 8 8 8 7 7 7 7 7 7 7 6 6 7 7 6 6 5 6 5 4 3 3 2 2 2 1 0 1 3 4 4 5 5 5 5 6 6 6 5 5 5
8 9 9 8 8 8 7 7 7 7 7 7 7 7 6 6 6 5 5 4 4 3 3 2 2 1 1 0 0 1 3 4 5 6 6 7 7 7 7 7 6 5 6
9 9 9 8 8 7 7 6 6 6 6 6 7 6 6 6 5 5 4 4 3 3 3 2 1 1 1 1 1 2 3 4 5 5 7 7 7 7 8 8 7 7 6
10 9 9 9 8 7 7 6 6 5 5 6 6 6 6 5 5 4 4 4 3 2 2 2 1 1 1 1 2 2 3 4 5 5 6 7 8 8 9 9 8 7 6
10 10 9 9 8 7 7 6 6 5 5 5 5 6 6 5 5 4 4 3 2 2 1 1 2 1 1 1 2 3 4 4 4 5 6 6 7 8 9 9 9 7 6
11 11 10 9 8 7 7 6 6 6 5 5 5 5 6 5 4 3 2 2 2 2 1 2 2 2 3 3 3 4 4 4 5 7 7 6 7 8 8 8 8 8 7
11 11 11 10 8 8 7 6 5 5 4 4 5 5 5 4 4 3 2 3 3 2 2 3 3 4 4 4 4 4 5 6 6 6 6 7 6 6 8 8 8 8 8
12 12 11 10 9 8 7 6 6 5 5 4 4 4 4 3 3 3 3 3 4 4 4 3 3 4 4 3 4 5 5 4 4 4 4 6 6 6 7 8 8 8 8
13 13 12 11 10 9 7 7 6 6 6 5 5 5 5 4 3 3 4 4 4 5 4 4 3 4 3 4 4 5 5 4 3 3 3 5 6 7 7 8 8 8 9
13 13 13 12 10 9 8 8 8 7 6 6 6 5 5 4 4 4 4 5 5 6 5 4 4 4 4 4 4 5 5 5 4 3 3 3 5 6 7 8 8 9 9
13 13 13 12 10 9 9 8 7 7 6 6 6 5 5 5 4 5 4 5 6 7 6 5 5 5 5 5 5 4 4 4 3 2 3 4 4 5 7 8 9 9 10
12 12 13 12 11 9 9 9 8 7 7 7 6 6 6 6 6 6 6 6 6 6 6 5 5 5 5 5 5 5 5 4 4 4 3 5 5 6 7 8 8 9 9
12 12 12 12 11 9 9 9 8 7 7 6 6 6 6 6 6 7 7 7 7 7 7 6 5 5 5 5 5 4 5 5 5 5 5 6 6 7 8 8 9 9 9
12 12 12 11 11 10 9 9 8 8 7 7 6 6 7 7 7 7 7 7 7 7 7 7 6 5 6 5 5 5 5 5 6 6 6 6 6 7 8 8 9 10 10
11 11 11 11 11 10 9 9 8 8 8 8 7 7 7 7 8 8 8 8 8 8 8 8 7 6 6 6 6 6 6 6 6 6 6 7 7 7 8 8 9 9 10
9 10 10 10 10 10 9 8 9 8 8 8 8 8 8 8 8 8 9 9 9 9 8 8 8 7 7 6 7 7 6 6 6 6 7 7 7 8 8 8 9 9 10
8 8 9 9 10 9 9 8 8 8 8 9 8 8 8 8 9 9 9 9 9 9 9 9 9 8 7 6 6 7 7 6 6 5 6 6 7 7 8 9 10 10 10
8 8 10 9 9 9 9 8 8 8 8 9 9 8 9 9 9 9 10 9 9 9 9 9 9 9 8 7 7 6 6 7 7 7 7 8 8 9 9 10 10 10 11
7 8 9 9 8 8 8 8 8 8 8 9 9 9 10 10 10 10 10 11 11 11 10 10 9 9 9 8 8 7 7 7 7 8 8 9 9 10 11 12 12 11 11
7 8 9 9 8 8 8 9 9 9 9 9 10 10 11 11 11 11 11 11 11 12 11 11 10 10 9 9 9 9 9 8 7 8 9 10 12 12 12 12 11 11 12
8 8 8 9 9 9 10 9 9 10 10 10 11 12 12 12 12 12 12 11 12 12 12 11 11 11 11 11 11 10 10 9 9 10 10 10 11 12 13 12 12 12 13
9 8 8 9 9 10 10 10 10 10 11 11 12 12 13 14 13 13 13 12 13 13 13 13 13 12 12 12 12 11 11 11 11 11 11 11 12 13 14 14 14 14 13
Wind_Direction
41 38 37 39 46 47 48 53 56 54 48 47 56 57 53 45 54 86 140 140 149 168 177 163 157 166 202 190 171 181 190 199 191 180 188 193 199 196 192 203 206 202 199
38 41 41 39 46 52 54 53 53 50 43 46 50 49 45 34 53 65 114 120 128 144 155 151 147 154 201 203 195 201 210 203 196 188 193 203 206 209 208 208 209 209 205
37 42 42 42 47 48 51 53 53 51 45 49 44 45 45 42 64 86 109 110 117 130 130 121 114 108 128 172 203 225 221 202 199 203 205 207 210 212 216 220 219 217 215
43 47 47 45 45 45 50 56 58 58 50 51 54 53 53 57 78 90 104 110 116 117 113 103 87 83 81 110 235 240 224 211 217 218 227 217 211 214 220 218 221 223 216
46 48 48 46 44 46 50 54 52 53 53 55 59 56 55 65 83 88 99 105 110 110 110 99 69 66 67 71 110 199 222 229 231 232 233 231 226 225 227 227 228 227 223
48 51 52 47 48 48 49 53 53 54 56 62 66 65 63 67 79 87 93 102 105 101 101 82 60 48 34 50 258 220 233 236 237 243 241 239 234 227 225 227 229 232 225
48 51 53 52 52 50 47 49 54 60 60 63 68 67 63 68 71 75 79 85 92 94 88 75 44 3 337 286 274 254 257 257 251 249 246 246 242 229 223 224 228 231 233
49 52 53 53 53 52 46 47 51 54 56 64 67 65 60 65 69 75 81 86 79 87 76 53 29 354 320 278 280 278 271 270 258 249 249 247 243 233 224 224 226 230 232
51 51 51 54 53 52 48 49 49 51 59 63 62 60 57 59 60 65 74 79 59 33 30 17 359 0 342 312 297 294 287 280 269 257 255 248 239 231 224 223 226 231 234
50 49 49 50 50 53 50 44 43 49 56 56 58 59 58 55 57 49 48 31 16 9 356 324 328 338 324 310 299 294 293 286 285 274 259 242 232 227 223 224 227 230 234
47 46 44 46 46 47 46 49 51 54 57 55 59 55 50 47 46 36 26 1 351 345 334 323 325 318 316 303 295 295 289 284 280 275 257 237 233 229 228 226 230 232 235
43 42 41 45 40 42 49 54 52 51 53 57 60 49 42 37 33 26 15 2 339 327 325 318 325 327 321 312 302 301 292 289 294 294 256 233 229 222 221 223 228 233 232
42 41 41 42 39 47 51 53 48 48 51 55 53 43 32 23 15 11 10 350 332 326 330 325 319 326 327 313 302 294 293 285 310 290 263 229 223 217 221 225 229 233 233
42 41 40 42 45 52 50 49 48 47 43 39 40 38 34 29 27 21 9 348 335 331 331 326 318 314 312 308 303 302 300 292 291 282 258 226 224 222 228 229 234 237 236
43 40 39 40 45 52 50 46 46 42 38 40 36 30 27 24 20 15 3 350 346 343 340 332 321 310 304 303 299 295 297 292 278 280 258 244 238 233 229 232 237 238 236
43 41 40 41 44 51 47 41 40 40 41 40 31 27 24 17 9 5 358 353 352 347 343 339 339 327 318 313 307 302 296 300 285 275 258 246 240 237 236 238 241 238 241
41 39 41 43 44 46 43 40 37 38 36 31 25 21 17 12 3 358 355 351 350 351 349 346 342 343 337 334 320 307 298 286 281 265 261 256 248 246 246 243 243 244 247
41 38 38 40 40 41 39 36 35 33 29 27 22 17 9 2 359 358 354 350 349 350 347 346 341 339 339 336 328 315 302 289 281 269 259 255 250 248 245 243 247 245 246
35 35 35 36 36 38 38 36 32 29 25 21 15 11 6 4 358 353 352 353 354 352 348 348 343 335 331 327 321 318 309 294 278 271 262 258 255 252 246 244 243 245 246
27 29 28 28 27 28 31 29 27 26 21 14 9 5 1 360 358 354 353 349 347 345 343 344 342 338 329 320 320 318 313 305 284 271 266 261 259 256 251 248 243 248 251
17 21 18 21 19 19 19 18 19 17 14 11 7 2 358 353 351 349 349 346 343 340 336 336 336 332 330 320 316 317 310 305 295 279 267 262 258 257 255 251 249 250 254
9 7 9 11 13 14 14 10 7 7 6 3 0 355 351 346 341 339 340 340 338 335 332 329 328 326 325 321 313 306 306 300 292 283 274 265 259 258 258 255 256 257 257
0 360 360 0 1 3 3 359 354 350 349 347 348 346 344 339 336 333 333 334 332 329 326 323 323 320 319 316 314 307 303 296 291 288 279 268 263 261 260 258 259 261 265
349 349 350 352 352 350 347 347 342 337 336 335 335 336 334 331 329 328 327 326 324 323 321 320 318 316 312 309 308 305 302 293 286 284 280 275 271 264 260 259 261 266 266
333 336 339 339 343 343 338 338 336 330 327 327 329 329 327 325 323 320 322 320 318 318 317 317 314 311 309 305 302 301 299 297 291 286 280 279 275 272 266 264 264 265 266
328 327 329 331 333 331 331 331 326 325 324 322 324 325 323 319 318 317 316 314 314 312 312 313 314 311 309 306 301 299 295 294 294 291 286 283 282 279 272 267 266 266 266